FW7474 Weather Reports


time (UTC)temp
C
wind
direction
speed
KPH
gust
KPH
rain 1hr
cm
rain 24hr
cm
rain mn
cm
humidity
%
barometer
mb
20260502163442 26 67 1.6 9.7 0.00 0.00 0.00 32 1019.3
20260502162942 26 302 3.2 9.7 0.00 0.00 0.00 32 1019.6
20260502162442 26 208 3.2 9.7 0.00 0.00 0.00 33 1019.3
20260502162208 27 282 4.8 9.7 0.00 0.00 0.00 29 1019.6
20260502162130 26 270 1.6 4.8 0.00 0.00 0.00 33 1019.5
20260502162013 26 343 0.0 14.5 0.00 0.00 0.00 33 1019.5
20260502161922 26 197 6.4 14.5 0.00 0.00 0.00 32 1019.5
20260502161810 26 295 3.2 11.3 0.00 0.00 0.00 31 1019.5
20260502152329 27 254 1.6 12.9 0.00 0.00 0.00 28 1020.0
20260502151433 27 266 1.6 22.5 0.00 0.00 0.00 28 1020.0
20260502150932 27 259 3.2 22.5 0.00 0.00 0.00 28 1020.3
20260502150433 27 7 3.2 8.0 0.00 0.00 0.00 28 1020.3
20260502123431 26 118 4.8 9.7 0.00 0.00 0.00 41 1022.4
20260502122931 26 263 3.2 8.0 0.00 0.00 0.00 40 1022.4
20260502122432 26 30 0.0 16.1 0.00 0.00 0.00 41 1022.3
20260502121934 26 241 3.2 16.1 0.00 0.00 0.00 42 1022.4
20260502121430 26 229 6.4 19.3 0.00 0.00 0.00 41 1022.3
20260502120931 25 148 6.4 19.3 0.00 0.00 0.00 42 1022.6
20260502120433 25 246 3.2 19.3 0.00 0.00 0.00 43 1022.5
20260502115932 25 249 8.0 19.3 0.00 0.00 0.00 43 1022.7
20260502115431 25 240 3.2 17.7 0.00 0.00 0.00 44 1022.7
20260502114933 25 38 3.2 17.7 0.00 0.00 0.00 44 1022.8
20260502114431 25 171 1.6 11.3 0.00 0.00 0.00 43 1022.8
20260502113934 25 144 3.2 14.5 0.00 0.00 0.00 43 1023.0
20260502113709 25 33 3.2 14.5 0.00 0.00 0.00 44 1022.9
20260502112931 25 81 6.4 12.9 0.00 0.00 0.00 45 1023.0
20260502112431 24 116 0.0 14.5 0.00 0.00 0.00 45 1023.0
20260502111931 24 277 8.0 14.5 0.00 0.00 0.00 46 1023.0
20260502111431 24 77 0.0 9.7 0.00 0.00 0.00 45 1022.9
20260502110931 24 140 1.6 11.3 0.00 0.00 0.00 45 1023.2
20260502110431 24 251 4.8 11.3 0.00 0.00 0.00 45 1023.3
20260502105934 24 223 6.4 12.9 0.00 0.00 0.00 46 1023.2
20260502105431 24 88 1.6 12.9 0.00 0.00 0.00 45 1023.6
20260502104933 23 29 3.2 12.9 0.00 0.00 0.00 46 1023.3
20260502104714 23 358 4.8 9.7 0.00 0.00 0.00 46 1023.3
20260502103932 23 49 6.4 9.7 0.00 0.00 0.00 47 1023.6
20260502103713 23 250 1.6 9.7 0.00 0.00 0.00 47 1023.4
20260502102931 23 56 4.8 8.0 0.00 0.00 0.00 47 1023.5
20260502102431 23 198 1.6 9.7 0.00 0.00 0.00 46 1023.6
20260502102232 23 86 3.2 9.7 0.00 0.00 0.00 46 1023.7
20260502102221 23 287 0.0 9.7 0.00 0.00 0.00 45 1023.7
20260502102217 23 237 3.2 9.7 0.00 0.00 0.00 46 1023.6
20260502101444 22 67 6.4 8.0 0.00 0.00 0.00 47 1023.8
20260502091451 21 236 8.0 11.3 0.00 0.00 0.00 49 1024.4
20260502091441 21 72 3.2 9.7 0.00 0.00 0.00 48 1024.1
20260502090417 21 228 3.2 11.3 0.00 0.00 0.00 49 1024.5
20260502065415 15 46 4.8 6.4 0.00 0.00 0.00 56 1025.3
20260502064916 15 29 3.2 6.4 0.00 0.00 0.00 57 1025.0
20260502064416 14 50 3.2 6.4 0.00 0.00 0.00 58 1024.6
20260502063916 14 86 4.8 6.4 0.00 0.00 0.00 58 1025.1
20260502063416 13 82 3.2 6.4 0.00 0.00 0.00 58 1024.9
20260502062917 13 27 3.2 4.8 0.00 0.00 0.00 59 1025.0
20260502062418 13 84 3.2 4.8 0.00 0.00 0.00 60 1025.1
20260502062158 12 53 3.2 6.4 0.00 0.00 0.00 62 1025.0
20260502061416 12 300 3.2 6.4 0.00 0.00 0.00 65 1025.0
20260502060916 11 107 0.0 3.2 0.00 0.00 0.00 70 1025.0
20260502060416 11 289 0.0 3.2 0.00 0.00 0.00 74 1024.9
20260502055919 10 120 1.6 3.2 0.00 0.00 0.00 74 1024.9
20260502055415 10 42 0.0 4.8 0.00 0.00 0.00 75 1024.9
20260502054916 9 116 1.6 4.8 0.00 0.00 0.00 76 1024.9
20260502054416 8 100 3.2 3.2 0.00 0.00 0.00 77 1025.0
20260502053916 8 96 1.6 3.2 0.00 0.00 0.00 77 1024.9
20260502053418 8 125 1.6 3.2 0.00 0.00 0.00 77 1025.0
20260502052915 8 134 0.0 3.2 0.00 0.00 0.00 77 1025.3
20260502052415 8 145 0.0 3.2 0.00 0.00 0.00 77 1024.8
20260502051915 8 146 0.0 3.2 0.00 0.00 0.00 77 1025.2
20260502051416 8 110 1.6 3.2 0.00 0.00 0.00 77 1024.8
20260502050915 8 143 1.6 3.2 0.00 0.00 0.00 77 1025.0
20260502050657 8 82 0.0 4.8 0.00 0.00 0.00 77 1024.9
20260502045915 7 204 3.2 4.8 0.00 0.00 0.00 77 1025.1
20260502045658 7 197 3.2 4.8 0.00 0.00 0.00 77 1024.6
20260502044915 7 185 3.2 3.2 0.00 0.00 0.00 77 1024.7
20260502044416 7 197 1.6 3.2 0.00 0.00 0.00 77 1024.8
20260502044343 7 153 0.0 3.2 0.00 0.00 0.00 77 1024.8
20260502044336 7 200 3.2 4.8 0.00 0.00 0.00 76 1024.5
20260502044248 7 178 1.6 3.2 0.00 0.00 0.00 77 1024.8
20260502044152 7 170 0.0 3.2 0.00 0.00 0.00 77 1024.8
20260502043802 7 150 0.0 3.2 0.00 0.00 0.00 76 1024.7
20260502043711 7 217 0.0 3.2 0.00 0.00 0.00 76 1024.5
20260502043323 7 138 0.0 4.8 0.00 0.00 0.00 76 1025.0
20260502043236 7 147 4.8 4.8 0.00 0.00 0.00 76 1024.8
20260502035909 7 176 0.0 3.2 0.00 0.00 0.00 76 1024.4
20260502035409 7 159 1.6 3.2 0.00 0.00 0.00 75 1024.6
20260502034908 7 174 0.0 3.2 0.00 0.00 0.00 75 1024.8
20260502034408 7 142 0.0 4.8 0.00 0.00 0.00 75 1024.7
20260502033909 7 149 3.2 4.8 0.00 0.00 0.00 75 1024.7
20260502033411 7 151 3.2 4.8 0.00 0.00 0.00 75 1024.6
20260502032909 7 212 3.2 4.8 0.00 0.00 0.00 75 1024.7
20260502032408 8 117 0.0 3.2 0.00 0.00 0.00 75 1024.6
20260502031910 8 175 0.0 3.2 0.00 0.00 0.00 74 1024.6
20260502031408 8 196 0.0 4.8 0.00 0.00 0.00 74 1024.6
20260502030909 8 215 3.2 4.8 0.00 0.00 0.00 73 1024.8
20260502030655 8 123 1.6 4.8 0.00 0.00 0.00 73 1024.5
20260502025909 8 129 1.6 4.8 0.00 0.00 0.00 73 1024.6
20260502025409 8 139 1.6 4.8 0.00 0.00 0.00 73 1024.5
20260502024908 8 169 1.6 4.8 0.00 0.00 0.00 72 1024.7
20260502024409 8 164 0.0 4.8 0.00 0.00 0.00 72 1024.9
20260502023909 8 176 1.6 4.8 0.00 0.00 0.00 72 1024.6
20260502023411 8 122 1.6 3.2 0.00 0.00 0.00 71 1024.7
20260502022909 8 146 0.0 3.2 0.00 0.00 0.00 71 1024.6
20260502022408 8 147 1.6 3.2 0.00 0.00 0.00 71 1024.4
20260502021909 8 170 1.6 3.2 0.00 0.00 0.00 71 1024.7
20260502021409 8 174 1.6 3.2 0.00 0.00 0.00 70 1024.8
20260502020908 8 131 0.0 3.2 0.00 0.00 0.00 70 1024.6
20260502020409 8 146 0.0 3.2 0.00 0.00 0.00 70 1024.7
20260502015908 8 156 1.6 3.2 0.00 0.00 0.00 70 1024.6
20260502015655 8 162 3.2 3.2 0.00 0.00 0.00 70 1024.5
20260502014908 8 156 1.6 3.2 0.00 0.00 0.00 69 1024.9
20260502014656 8 155 1.6 3.2 0.00 0.00 0.00 69 1024.8
20260502014154 8 200 1.6 3.2 0.00 0.00 0.00 69 1024.6
20260502013409 9 138 0.0 3.2 0.00 0.00 0.00 68 1024.8
20260502013005 9 141 1.6 3.2 0.00 0.00 0.00 68 1024.8
20260502012906 9 145 0.0 3.2 0.00 0.00 0.00 68 1024.6
20260502012813 9 139 1.6 3.2 0.00 0.00 0.00 68 1024.7
20260502012657 9 153 3.2 3.2 0.00 0.00 0.00 67 1024.9
20260502012603 9 212 0.0 3.2 0.00 0.00 0.00 67 1024.8
20260502012502 9 150 0.0 3.2 0.00 0.00 0.00 66 1024.9
20260502005905 9 165 1.6 3.2 0.00 0.00 0.00 67 1024.9
20260502005406 9 167 0.0 3.2 0.00 0.00 0.00 66 1024.9
20260502004906 9 161 1.6 3.2 0.00 0.00 0.00 66 1025.1
20260502004406 9 158 0.0 3.2 0.00 0.00 0.00 65 1025.1
20260502003906 10 130 0.0 3.2 0.00 0.00 0.00 65 1024.9
20260502003408 10 158 0.0 3.2 0.00 0.00 0.00 65 1024.9
20260502002906 10 119 0.0 1.6 0.00 0.00 0.00 64 1025.1
20260502002406 10 124 0.0 1.6 0.00 0.00 0.00 64 1025.2
20260502002150 10 156 1.6 1.6 0.00 0.00 0.00 64 1025.2
20260502001405 10 156 1.6 3.2 0.00 0.00 0.00 63 1025.5
20260502000906 10 177 0.0 3.2 0.00 0.00 0.00 63 1025.1
20260502000652 10 157 0.0 3.2 0.00 0.00 0.00 62 1025.1
20260501235907 10 163 1.6 3.2 0.00 0.00 0.00 62 1025.3
20260501235406 10 153 0.0 3.2 0.00 0.00 0.00 62 1025.5
20260501234906 10 117 1.6 3.2 0.00 0.00 0.00 61 1025.5
20260501234410 10 132 1.6 3.2 0.00 0.00 0.00 61 1025.5
20260501233909 10 162 0.0 1.6 0.00 0.00 0.00 61 1025.3
20260501233406 11 157 1.6 1.6 0.00 0.00 0.00 61 1025.3
20260501233150 11 182 0.0 3.2 0.00 0.00 0.00 61 1025.3
20260501232406 11 143 0.0 3.2 0.00 0.00 0.00 60 1025.3
20260501231906 11 153 1.6 3.2 0.00 0.00 0.00 59 1025.5
20260501231406 11 119 0.0 3.2 0.00 0.00 0.00 59 1025.7
20260501230906 11 139 1.6 3.2 0.00 0.00 0.00 60 1025.6
20260501230406 11 136 1.6 3.2 0.00 0.00 0.00 59 1025.6
20260501225906 11 142 0.0 3.2 0.00 0.00 0.00 59 1025.5
20260501225406 11 156 0.0 3.2 0.00 0.00 0.00 58 1025.6
20260501225150 11 149 1.6 3.2 0.00 0.00 0.00 58 1025.9
20260501224406 11 154 0.0 3.2 0.00 0.00 0.00 57 1025.5
20260501223905 11 99 0.0 3.2 0.00 0.00 0.00 56 1025.3
20260501223405 12 158 1.6 3.2 0.00 0.00 0.00 56 1025.6
20260501223131 12 134 0.0 3.2 0.00 0.00 0.00 55 1025.5
20260501223059 12 131 0.0 3.2 0.00 0.00 0.00 57 1025.6
20260501223004 12 128 3.2 3.2 0.00 0.00 0.00 55 1025.6
20260501222911 12 122 0.0 3.2 0.00 0.00 0.00 55 1025.7
20260501222817 12 156 0.0 3.2 0.00 0.00 0.00 53 1025.8
20260501222726 12 134 1.6 3.2 0.00 0.00 0.00 54 1025.3
20260501215902 12 134 1.6 3.2 0.00 0.00 0.00 55 1025.3
20260501215402 12 117 1.6 3.2 0.00 0.00 0.00 55 1025.3
20260501215143 12 148 0.0 3.2 0.00 0.00 0.00 55 1025.7
20260501214405 12 130 1.6 3.2 0.00 0.00 0.00 55 1025.3
20260501213903 12 148 3.2 3.2 0.00 0.00 0.00 55 1025.6
20260501213402 12 173 0.0 3.2 0.00 0.00 0.00 53 1025.6
20260501212902 12 140 0.0 1.6 0.00 0.00 0.00 52 1025.5
20260501212402 13 139 0.0 3.2 0.00 0.00 0.00 52 1025.3
20260501212144 13 148 0.0 3.2 0.00 0.00 0.00 51 1025.6
20260501211405 13 127 0.0 3.2 0.00 0.00 0.00 51 1025.6
20260501210903 13 153 1.6 1.6 0.00 0.00 0.00 51 1025.7
20260501210403 13 153 0.0 1.6 0.00 0.00 0.00 50 1025.6
20260501205902 13 129 0.0 1.6 0.00 0.00 0.00 50 1025.7
20260501205646 13 156 0.0 3.2 0.00 0.00 0.00 49 1025.7
20260501204902 13 145 0.0 3.2 0.00 0.00 0.00 49 1025.5
20260501204403 14 166 0.0 1.6 0.00 0.00 0.00 49 1025.6
20260501203905 14 119 0.0 3.2 0.00 0.00 0.00 48 1025.7
20260501203403 14 112 0.0 3.2 0.00 0.00 0.00 48 1025.6
20260501202902 14 148 1.6 3.2 0.00 0.00 0.00 47 1025.7
20260501202402 15 111 0.0 3.2 0.00 0.00 0.00 46 1025.7
20260501201902 15 104 0.0 3.2 0.00 0.00 0.00 46 1025.5
20260501201403 15 153 1.6 3.2 0.00 0.00 0.00 45 1025.9
20260501200903 15 155 1.6 1.6 0.00 0.00 0.00 44 1025.7
20260501200403 15 154 0.0 3.2 0.00 0.00 0.00 44 1025.6
20260501195903 16 96 0.0 3.2 0.00 0.00 0.00 43 1025.7
20260501195403 16 108 3.2 3.2 0.00 0.00 0.00 43 1025.6
20260501194903 16 118 3.2 3.2 0.00 0.00 0.00 41 1025.5
20260501194404 16 124 1.6 3.2 0.00 0.00 0.00 40 1025.7
20260501193903 17 147 0.0 1.6 0.00 0.00 0.00 39 1025.6
20260501193403 17 209 0.0 4.8 0.00 0.00 0.00 37 1025.5
20260501192938 18 100 3.2 4.8 0.00 0.00 0.00 34 1025.2
20260501192925 17 122 0.0 4.8 0.00 0.00 0.00 36 1025.7
20260501192825 17 81 3.2 4.8 0.00 0.00 0.00 35 1025.3
20260501192433 18 103 3.2 4.8 0.00 0.00 0.00 34 1025.5
20260501192342 18 88 3.2 9.7 0.00 0.00 0.00 33 1025.6
20260501192253 18 95 0.0 9.7 0.00 0.00 0.00 33 1025.3
20260501185844 18 130 1.6 6.4 0.00 0.00 0.00 33 1025.1
20260501185344 19 122 0.0 3.2 0.00 0.00 0.00 32 1025.2
20260501184845 19 27 0.0 4.8 0.00 0.00 0.00 31 1025.2
20260501184344 20 97 0.0 6.4 0.00 0.00 0.00 31 1025.2
20260501184127 20 89 3.2 6.4 0.00 0.00 0.00 30 1025.1
20260501183344 20 66 0.0 6.4 0.00 0.00 0.00 29 1025.6
20260501182844 20 44 0.0 4.8 0.00 0.00 0.00 29 1025.3
20260501182344 21 90 3.2 6.4 0.00 0.00 0.00 28 1025.3
20260501181857 21 89 3.2 6.4 0.00 0.00 0.00 28 1025.2
20260501181344 21 100 3.2 6.4 0.00 0.00 0.00 28 1025.3
20260501180846 22 97 3.2 9.7 0.00 0.00 0.00 27 1024.8
20260501180345 22 81 3.2 9.7 0.00 0.00 0.00 26 1025.2
20260501180129 22 87 3.2 8.0 0.00 0.00 0.00 27 1025.1
20260501175629 22 90 3.2 8.0 0.00 0.00 0.00 24 1025.1
20260501174848 23 111 4.8 11.3 0.00 0.00 0.00 25 1025.0
20260501174346 23 69 3.2 11.3 0.00 0.00 0.00 25 1025.0
20260501173844 23 44 3.2 8.0 0.00 0.00 0.00 24 1025.0
20260501173627 23 79 3.2 8.0 0.00 0.00 0.00 23 1025.0
20260501173126 24 91 3.2 6.4 0.00 0.00 0.00 23 1025.0
20260501172351 24 69 3.2 6.4 0.00 0.00 0.00 23 1025.2
20260501172344 24 28 1.6 6.4 0.00 0.00 0.00 22 1025.2
20260501171344 24 84 3.2 8.0 0.00 0.00 0.00 22 1025.0
20260501170848 24 123 3.2 11.3 0.00 0.00 0.00 22 1025.1
20260501170357 24 68 4.8 11.3 0.00 0.00 0.00 22 1025.1
20260501170133 24 50 4.8 12.9 0.00 0.00 0.00 22 1025.2
20260501165346 25 117 0.0 12.9 0.00 0.00 0.00 22 1025.2
20260501164844 25 20 4.8 12.9 0.00 0.00 0.00 21 1024.9
20260501164630 25 47 6.4 11.3 0.00 0.00 0.00 21 1025.2
20260501163843 25 102 6.4 16.1 0.00 0.00 0.00 20 1025.2